Regional Weather Roundup
Issued by NWS

Home | Current Version | Previous Version | Text Only | Print | Product List | Glossary Off
Versions: 1 2 3 4 5 6 7 8 9 10 11 12 13 14 15 16 17 18 19 20 21 22 23 24 25 26 27 28 29 30 31 32 33 34 35 36 37 38 39 40 41 42 43 44 45 46 47 48 49 50

000
ASUS43 KMPX 020010
RWRMN
WEATHER ROUNDUP FOR MINNESOTA
NATIONAL WEATHER SERVICE TWIN CITIES/CHANHASSEN MN
600 PM CST SUN MAR 01 2015


NOTE: "FAIR" INDICATES FEW OR NO CLOUDS BELOW 12,000 FEET WITH NO
SIGNIFICANT WEATHER AND/OR OBSTRUCTIONS TO VISIBILITY. N/A MEANS
CURRENT SKY AND/OR WEATHER CONDITIONS ARE NOT AVAILABLE.

MNZ060>063-068>070-020100-
   Twin Cities Metro

CITY           SKY/WX    TMP DP  RH WIND       PRES   REMARKS
TWIN CITIES    MOCLDY    27  13  55 W15       30.24R WCI  15
6HR MIN TEMP:  22; 6HR MAX TEMP:  28;

ST PAUL        CLOUDY    27  13  55 W12G21    30.25S WCI  17
CRYSTAL        CLOUDY    28  12  51 W14       30.22S WCI  17
BLAINE         MOCLDY    28  16  59 SW10      30.22R WCI  19
LAKEVILLE      PTCLDY    23  12  63 W10       30.24R WCI  12
EDEN PRAIRIE   CLOUDY    26  14  60 W10       30.23S WCI  16
6HR MIN TEMP:  21; 6HR MAX TEMP:  28;

SOUTH ST PAUL  CLOUDY    27  13  54 W7        30.24S WCI  20
LAKE ELMO      MOCLDY    27  14  59 W9        30.23S WCI  17
$$
MNZ001>005-007-008-013>017-022>024-027-028-020100-
   Northwest Minnesota

CITY           SKY/WX    TMP DP  RH WIND       PRES   REMARKS
BEMIDJI        FLURRIES  13   8  78 W15       30.19R WCI  -3
HALLOCK        CLEAR     18   7  62 W8        30.25R WCI   7
ROSEAU         CLEAR     16   7  67 W9        30.20R WCI   4
WARROAD        CLEAR     18   3  53 W9        30.19R WCI   6
THIEF RVR FALL CLEAR     12   9  85 W8        30.25R WCI   1
CROOKSTON      CLEAR     16  10  79 NW7       30.29R WCI   6
FOSSTON        PTCLDY    12   7  79 W9        30.24S WCI   0
DETROIT LAKES  LGT SNOW  18  14  86 NW16      30.25R WCI   3
MOORHEAD       MOCLDY    18  14  86 NW9       30.31R WCI   6
PARK RAPIDS    CLOUDY    17   9  70 NW16G24   30.20R WCI   2
MAHNOMEN       FLURRIES  15  11  83 NW12      30.25R WCI   1
$$
MNZ006-009>011-018-025>026-020100-
   North Central Minnesota

CITY           SKY/WX    TMP DP  RH WIND       PRES   REMARKS
BAUDETTE       MOCLDY    17   6  62 W10       30.14R WCI   5
FLAG ISLAND    MOCLDY    16   3  57 NW17      30.15R WCI   0
INTL FALLS     CLOUDY    16   7  67 W9        30.12R WCI   4
6HR MIN TEMP:  13; 6HR MAX TEMP:  19;

WASKISH        CLOUDY    12   9  85 SW13      30.18R WCI  -3
BIG FORK       CLEAR     16   5  62 W8        30.15R WCI   5
LONGVILLE      CLOUDY    18   9  68 NW10      30.18R WCI   6
GRAND RAPIDS   CLOUDY    19   9  63 NW14G22   30.13R WCI   6
CRANE LAKE     CLOUDY    18   3  53 W3        30.12R
ORR            CLOUDY    16   3  57 W8        30.09R WCI   5
COOK           PTCLDY    16   5  62 W9        30.11R WCI   4
WALKER         FLURRIES  15   7  71 W9G17     30.19R WCI   3
$$
MNZ012-019>021-037-020100-
   Northeast Minnesota

CITY           SKY/WX    TMP DP  RH WIND       PRES   REMARKS
DULUTH         MOCLDY    22   7  52 W15G23    30.09R WCI   9
6HR MIN TEMP:  20; 6HR MAX TEMP:  23;

ELY            CLEAR     16   3  57 W8        30.07R WCI   5
HIBBING        PTCLDY    19   5  54 W9G18     30.11R WCI   8
EVELETH        CLEAR     19   7  58 W14       30.11R WCI   6
DULUTH HARBOR  CLOUDY    25  10  54 W14       30.16R WCI  13
SILVER BAY     MOCLDY    21   9  58 SW5       30.06R WCI  15
GRAND MARAIS     N/A     23   3  42 VRB6      30.07R WCI  16
G MARAIS ARPRT CLEAR     16   0  48 W12G21    29.98R WCI   3
$$
MNZ029>031-032-039>041-046>048-054>057-064-020100-
   West Central Minnesota

CITY           SKY/WX    TMP DP  RH WIND       PRES   REMARKS
FERGUS FALLS   CLOUDY    19  10  68 NW22      30.31R WCI   3
MORRIS         CLOUDY    21  12  68 NW17G24   30.28R WCI   7
ALEXANDRIA     CLOUDY    19  12  74 NW15G25   30.25R WCI   5
ELBOW LAKE     CLOUDY    20  13  75 NW13      30.27R WCI   7
WADENA         LGT SNOW  18  12  79 NW14      30.22R WCI   4
APPLETON       MOCLDY    25  16  68 NW16      30.30R WCI  12
BENSON         PTCLDY    23  12  63 N13G25    30.29R WCI  11
ORTONVILLE     CLOUDY    23  10  58 NW15G21   30.31R WCI  10
MADISON        MOCLDY    25  16  68 NW18G24   30.32R WCI  11
WILLMAR        MOCLDY    25  16  68 NW16G25   30.28R WCI  12
$$
MNZ033>034-036-042>043-049>051-058-059-020100-
   Central Minnesota

CITY           SKY/WX    TMP DP  RH WIND       PRES   REMARKS
ST CLOUD       MOCLDY    24  12  60 W16G25    30.22R WCI  11
6HR MIN TEMP:  21; 6HR MAX TEMP:  27;

SAUK CENTRE    FLURRIES  22  14  72 W16G22    30.23R WCI   8
PAYNESVILLE    CLOUDY    21  15  78 SW17G24   30.25R WCI   6
PINE RIVER     CLOUDY    18   9  68 W7        30.22R WCI   8
BRAINERD       CLOUDY    20   9  62 W10       30.20R WCI   9
STAPLES        CLOUDY    18  12  79 W10       30.21R WCI   6
LONG PRAIRIE   CLOUDY    21  12  68 W7        30.23R WCI  13
LITTLE FALLS   LGT SNOW  23  14  68 W14G20    30.22R WCI  11
LITCHFIELD     MIX PCPN  25  18  74 W9G16     30.25R WCI  15
BUFFALO        MOCLDY    27  10  50 W13G22    30.24S WCI  16
MAPLE LAKE     CLOUDY    27  14  59 W16       30.24R WCI  14
$$
MNZ037-044-045-052-053-020100-
   East Central Minnesota

CITY           SKY/WX    TMP DP  RH WIND       PRES   REMARKS
PRINCETON      CLOUDY    25  12  58 W10       30.21S WCI  15
MORA           PTCLDY    25  10  54 NW10      30.21R WCI  15
CAMBRIDGE      MOCLDY    27  10  50 W8        30.20R WCI  18
RUSH CITY      CLOUDY    24  10  56 W10       30.20S WCI  13
MOOSE LAKE     MOCLDY    23   9  54 W13       30.14R WCI  11
HINCKLEY       CLOUDY    23  10  58 W8G21     30.18S WCI  14
CLOQUET        CLOUDY    21  10  63 W12G22    30.12R WCI   9
MCGREGOR       CLOUDY    23  12  63 W13G22    30.16R WCI  11
$$
MNZ071>073-080-081-089-090-097-098-020100-
   Southwest Minnesota

CITY           SKY/WX    TMP DP  RH WIND       PRES   REMARKS
MONTEVIDEO     CLOUDY    25  16  68 NW13      30.31R WCI  13
GRANITE FALLS  MOCLDY    26  17  71 W18G24    30.32R WCI  12
CANBY          MOCLDY    25  16  69 NW18      30.33R WCI  11
MARSHALL       PTCLDY    25  16  68 NW16      30.32R WCI  12
REDWOOD FALLS  PTCLDY    26  16  65 NW18      30.29R WCI  13
OLIVIA         MOCLDY    27  19  74 NW15G22   30.28R WCI  15
PIPESTONE      CLEAR     25  18  74 NW13      30.30R WCI  13
WINDOM         CLOUDY    27  18  69 W20G25    30.29R WCI  13
WORTHINGTON    CLEAR     34  12  40 NW20      30.32R WCI  22
JACKSON        MOCLDY    28  16  59 W15       30.29R WCI  17
TRACY          CLOUDY    27  19  70 NW12      30.30R WCI  17
SLAYTON        PTCLDY    25  13  62 W17       30.30R WCI  11
$$
MNZ065>067-074>077-082>085-091>093-020100-
   South Central Minnesota

CITY           SKY/WX    TMP DP  RH WIND       PRES   REMARKS
MANKATO        MOCLDY    28  12  50 NW15      30.27R WCI  17
NEW ULM        MOCLDY    27  16  63 NW16      30.28R WCI  14
ST JAMES       MOCLDY    28  18  64 W15       30.30R WCI  17
FAIRMONT       MOCLDY    28  12  50 W16       30.28R WCI  17
GLENCOE        CLOUDY    27  19  73 W15G22    30.25R WCI  15
FARIBAULT      CLOUDY    27  14  59 W8        30.25S WCI  18
OWATONNA       CLOUDY    27  14  59 W7        30.25R WCI  19
WASECA         MOCLDY    25  16  68 W12       30.28R WCI  14
ALBERT LEA     CLOUDY    25  14  63 W7        30.27R WCI  17
$$
MNZ078>079-086>088-094>096-020100-
   Southeast Minnesota

CITY           SKY/WX    TMP DP  RH WIND       PRES   REMARKS
ROCHESTER      CLEAR     15   8  73 SW8       30.25S WCI   4
6HR MIN TEMP:  15; 6HR MAX TEMP:  21;

RED WING       PTCLDY    25  10  54 W8        30.24S WCI  16
STANTON        PTCLDY    26  14  60 W9        30.23S WCI  17
DODGE CENTER   MOCLDY    21  12  68 W8        30.24R WCI  12
WINONA         CLEAR     25  10  54 W8        30.28S WCI  16
AUSTIN         MOCLDY    25  12  58 W7        30.27R WCI  17
PRESTON        CLEAR     18   9  70 W8        30.27R WCI   7
$$
ABBREVIATIONS USED IN REMARKS
   TC - TEMPERATURES IN CELSIUS
  WCI - WIND CHILL INDEX
   HX - HEAT INDEX
  VSB - VISIBILITY
$$



USA.gov is the U.S. government's official web portal to all federal, state and local government web resources and services.